Location: Unspecified
(49.8670°N, 0.0000°E)
Time: 08:27:30
(UTC+00:00)

Courier 1B Rocket - Pass Details

Date: 27 June 2019
Orbit: 920 x 1202 km, 28.2° (Epoch: 16 July)

Event Time Altitude Azimuth Distance (km) Brightness Sun altitude
Rises 04:19:44 0° 231° (SW) 3,907 7.4 2.6°
Reaches altitude 10° 04:25:11 10° 198° (SSW) 2,866 7.0 3.3°
Maximum altitude 04:26:53 11° 184° (S) 2,770 7.1 3.5°
Drops below altitude 10° 04:28:33 10° 169° (S) 2,814 7.2 3.8°
Sets 04:33:42 0° 136° (SE) 3,686 8.2 4.5°
